Location: Boiro
(42.6475°N, 8.8834°W)
Time: 07:49:50
(UTC+01:00)

SR - Pass Details

Date: 09 December 2021
Orbit: 583 x 872 km, 66.7° (Epoch: 16 January)

Event Time Altitude Azimuth Distance (km) Brightness Sun altitude
Rises 22:58:10 0° 193° (SSW) 2,998 - -53.2°
Reaches altitude 10° 23:00:37 10° 187° (S) 2,045 - -53.7°
Maximum altitude 23:04:57 44° 115° (ESE) 862 - -54.4°
Drops below altitude 10° 23:09:05 10° 44° (NE) 1,942 - -55.1°
Sets 23:11:21 0° 37° (NE) 2,829 - -55.5°
